Probability
0 0 0 0 0 0 0 0 0 0 0 0 0 0 0 0 0 0 0 0 0 0 0 0 0 0 0 0 0 0 0 0 0 0 0 0 0 0 0 0 0 0 0 0
0 0 0 0 0 0 0 0 0 0 0 0 0 0 0 0 0 0 0 0 0 0 0 0 0 0 0 0 0 0 0 0 0 0 0 0 0 0 0 0 0 0 0 0
0 0 0 0 0 0 0 0 0 0 0 0 0 0 0 0 0 0 0 0 0 0 0 0 0 0 0 0 0 0 0 0 0 0 0 0 0 0 0 0 0 0 0 0
0 0 0 0 0 0 0 0 0 0 0 0 0 0 0 0 0 0 0 0 0 0 0 0 0 0 0 0 0 0 0 0 0 0 0 0 0 0 0 0 0 0 0 0
0 0 0 0 0 0 0 0 0 0 0 0 0 0 0 0 0 0 0 0 0 0 0 0 0 0 0 0 0 0 0 0 0 0 0 0 0 0 0 0 0 0 0 0
0 0 0 0 0 0 0 0 0 0 0 0 0 0 0 0 0 0 0 0 0 0 0 0 0 0 0 0 0 0 0 0 0 0 0 0 0 0 0 0 0 0 0 0
0 0 0 0 0 0 0 0 0 0 0 0 0 0 0 0 0 0 0 0 0 0 0 0 0 0 0 0 0 0 0 0 0 0 0 0 0 0 0 0 0 0 0 0
0 0 0 0 0 0 0 0 0 0 0 0 0 0 0 0 0 0 0 0 0 0 0 0 0 0 0 0 0 0 0 0 0 0 0 0 0 0 0 0 0 0 0 0
0 0 0 0 0 0 0 0 0 0 0 0 0 0 0 0 0 0 0 0 0 0 0 0 0 0 0 0 0 0 0 0 0 0 0 0 0 0 0 0 0 0 0 0
0 0 0 0 0 0 0 0 0 0 0 0 0 0 0 0 0 0 0 0 0 0 0 0 0 0 0 0 0 0 0 0 0 0 0 0 0 0 0 0 0 0 0 0
0 0 0 0 0 0 0 0 0 0 0 0 0 0 0 0 0 0 0 0 0 0 0 0 0 0 0 0 0 0 0 0 0 0 0 0 0 0 0 0 0 0 0 0
0 0 0 0 0 0 0 0 0 0 0 0 0 0 0 0 0 0 0 0 0 0 0 0 0 0 0 0 0 0 0 0 0 0 0 0 0 0 0 0 0 0 0 0
0 0 0 0 0 0 0 0 0 0 0 0 0 0 0 0 0 0 0 0 0 0 0 0 0 0 0 0 0 0 0 0 0 0 0 0 0 0 0 0 0 0 0 0
0 0 0 0 0 0 0 0 0 0 0 0 0 0 0 0 0 0 0 0 0 0 0 0 0 0 0 0 0 0 0 0 0 0 0 0 0 0 0 0 0 0 0 0
0 0 0 0 0 0 0 0 0 0 0 0 0 0 0 0 0 0 0 0 0 0 0 0 0 0 0 0 0 0 0 0 0 0 0 0 0 0 0 0 0 0 0 0
0 0 0 0 0 0 0 0 0 0 0 0 0 0 0 0 0 0 0 0 0 0 0 0 0 0 0 0 0 0 0 0 0 0 0 0 0 0 0 0 0 0 0 0
0 0 0 0 0 0 0 0 0 0 0 0 0 0 0 0 0 0 0 0 0 0 0 0 0 0 0 0 0 0 0 0 0 0 0 0 0 0 0 0 0 0 0 0
0 0 0 0 0 0 0 0 0 0 0 0 0 0 0 0 0 0 0 0 0 0 0 0 0 0 0 0 0 0 0 0 0 0 0 0 0 0 0 0 0 0 0 0
0 0 0 0 0 0 0 0 0 0 0 0 0 0 0 0 0 0 0 0 0 0 0 0 0 0 0 0 0 0 0 0 0 0 0 0 0 0 0 0 0 0 0 0
0 0 0 0 0 0 0 0 0 0 0 0 0 0 0 0 0 0 0 0 0 0 0 0 0 0 0 0 0 0 0 0 0 0 0 0 0 0 0 0 0 0 0 0
0 0 0 0 0 0 0 0 0 0 0 0 0 0 0 0 0 0 0 0 0 0 0 0 0 0 0 0 0 0 0 0 0 0 0 0 0 0 0 0 0 0 0 0
0 0 0 0 0 0 0 0 0 0 0 0 0 0 0 0 0 0 0 0 0 0 0 0 0 0 0 0 0 0 0 0 0 0 0 0 0 0 0 0 0 0 0 0
0 0 0 0 0 0 0 0 0 0 0 0 0 0 0 0 0 0 0 0 0 0 0 0 0 0 0 0 0 0 0 0 0 0 0 0 0 0 0 0 0 0 0 0
0 0 0 0 0 0 0 0 0 0 0 0 0 0 0 0 0 0 0 0 0 0 0 0 0 0 0 0 0 0 0 0 0 0 0 0 0 0 0 0 0 0 0 0
0 0 0 0 0 0 0 0 0 0 0 0 0 0 0 0 0 0 0 0 0 0 0 0 0 0 0 0 0 0 0 0 0 0 0 0 0 0 0 0 0 0 0 0
0 0 0 0 0 0 0 0 0 0 0 0 0 0 0 0 0 0 0 0 0 0 0 0 0 0 0 0 0 0 0 0 0 0 0 0 0 0 0 0 0 0 0 0
0 0 0 0 0 0 0 0 0 0 0 0 0 0 0 0 0 0 0 0 0 0 0 0 0 0 0 0 0 0 0 0 0 0 0 0 0 0 0 0 0 0 0 0
Height
5672 5671 5669 5669 5668 5666 5665 5664 5663 5663 5661 5660 5658 5656 5655 5654 5653 5652 5651 5650 5650 5649 5648 5648 5647 5647 5647 5647 5647 5647 5647 5647 5647 5647 5647 5647 5647 5647 5647 5646 5646 5645 5645 5645
5664 5663 5661 5660 5660 5659 5658 5657 5656 5655 5654 5653 5651 5649 5648 5647 5646 5645 5644 5644 5643 5642 5641 5641 5640 5639 5639 5638 5638 5638 5637 5637 5637 5636 5636 5636 5635 5635 5635 5635 5634 5634 5633 5633
5654 5654 5652 5651 5652 5651 5650 5649 5648 5646 5647 5645 5643 5642 5641 5640 5639 5638 5637 5636 5635 5634 5633 5633 5632 5631 5630 5629 5628 5628 5627 5627 5626 5625 5625 5624 5624 5624 5623 5622 5622 5621 5621 5620
5643 5644 5642 5646 5642 5642 5641 5640 5639 5637 5637 5636 5635 5634 5633 5632 5630 5630 5629 5628 5627 5626 5625 5624 5623 5622 5621 5620 5619 5618 5617 5616 5615 5614 5613 5613 5612 5612 5611 5610 5610 5609 5608 5607
5632 5631 5631 5633 5633 5632 5631 5631 5629 5628 5627 5626 5625 5625 5625 5623 5622 5621 5620 5619 5618 5617 5615 5614 5613 5612 5611 5610 5608 5607 5606 5605 5604 5603 5602 5601 5600 5599 5598 5598 5597 5596 5595 5594
5622 5620 5620 5623 5622 5621 5621 5620 5620 5618 5618 5617 5616 5616 5616 5614 5613 5612 5610 5609 5608 5607 5605 5604 5603 5601 5600 5599 5597 5596 5595 5593 5592 5591 5590 5589 5588 5587 5585 5584 5584 5582 5581 5580
5610 5609 5609 5612 5611 5610 5611 5611 5610 5608 5608 5607 5607 5606 5606 5604 5603 5602 5601 5599 5598 5596 5595 5593 5592 5590 5589 5587 5586 5585 5583 5582 5580 5579 5578 5576 5575 5574 5572 5571 5570 5569 5568 5566
5599 5599 5602 5600 5599 5600 5599 5598 5598 5597 5597 5597 5596 5595 5595 5594 5593 5592 5590 5589 5587 5585 5584 5582 5580 5579 5578 5576 5574 5573 5571 5570 5568 5567 5565 5563 5562 5560 5559 5558 5556 5555 5553 5552
5589 5590 5589 5588 5587 5587 5587 5587 5586 5586 5586 5586 5585 5584 5584 5583 5581 5580 5579 5577 5575 5574 5572 5570 5568 5567 5565 5564 5562 5560 5559 5557 5555 5554 5552 5550 5548 5547 5545 5544 5542 5541 5539 5538
5576 5576 5576 5576 5575 5575 5575 5575 5574 5574 5574 5574 5573 5573 5572 5571 5569 5568 5567 5565 5563 5561 5560 5558 5556 5554 5552 5551 5549 5547 5546 5544 5542 5540 5538 5536 5535 5533 5532 5530 5528 5527 5525 5523
5563 5564 5564 5564 5563 5563 5563 5563 5562 5562 5562 5561 5561 5560 5559 5558 5557 5556 5554 5552 5551 5549 5547 5545 5543 5541 5539 5537 5536 5534 5532 5530 5528 5526 5524 5523 5521 5519 5518 5516 5514 5513 5511 5509
5551 5552 5551 5552 5551 5551 5551 5551 5551 5550 5550 5549 5548 5547 5546 5545 5544 5542 5541 5539 5538 5536 5534 5532 5530 5528 5526 5524 5522 5521 5519 5517 5515 5513 5511 5509 5507 5506 5503 5502 5500 5498 5496 5494
5538 5538 5538 5539 5539 5539 5539 5539 5538 5538 5537 5536 5535 5534 5533 5532 5531 5529 5528 5526 5524 5522 5521 5519 5517 5515 5512 5510 5509 5507 5505 5503 5501 5500 5498 5496 5494 5492 5490 5488 5486 5484 5482 5480
5524 5525 5526 5527 5527 5527 5527 5527 5526 5526 5525 5523 5522 5521 5520 5519 5518 5516 5515 5513 5511 5509 5507 5505 5503 5501 5499 5497 5495 5493 5492 5490 5488 5486 5484 5482 5481 5479 5477 5475 5473 5471 5468 5466
5512 5513 5514 5514 5515 5515 5515 5514 5514 5513 5512 5511 5510 5508 5507 5506 5504 5503 5501 5500 5498 5496 5494 5492 5490 5488 5485 5484 5482 5480 5478 5477 5475 5473 5471 5469 5467 5465 5464 5462 5460 5458 5455 5453
5501 5501 5501 5502 5502 5502 5502 5502 5501 5500 5499 5498 5497 5496 5494 5493 5491 5489 5488 5486 5484 5482 5480 5478 5476 5474 5472 5470 5469 5467 5465 5464 5462 5460 5458 5456 5454 5452 5451 5449 5447 5445 5443 5440
5489 5490 5490 5490 5490 5490 5490 5489 5489 5488 5487 5486 5484 5483 5482 5480 5478 5477 5475 5473 5471 5469 5467 5465 5463 5461 5459 5458 5456 5454 5452 5450 5448 5446 5445 5443 5441 5439 5437 5435 5434 5432 5430 5427
5478 5479 5479 5479 5479 5478 5478 5477 5476 5475 5474 5473 5472 5471 5469 5467 5466 5464 5462 5460 5458 5456 5454 5452 5450 5449 5447 5445 5443 5441 5439 5438 5436 5434 5432 5430 5428 5426 5424 5422 5420 5419 5417 5415
5468 5468 5468 5468 5467 5467 5466 5465 5465 5464 5462 5461 5460 5458 5456 5455 5453 5451 5449 5448 5446 5444 5442 5440 5438 5436 5434 5432 5430 5428 5427 5425 5423 5421 5419 5417 5415 5413 5411 5410 5408 5406 5404 5402
5458 5458 5458 5457 5457 5456 5455 5454 5453 5452 5450 5449 5448 5446 5444 5442 5440 5439 5437 5435 5433 5431 5430 5428 5426 5424 5422 5420 5418 5416 5414 5413 5411 5409 5407 5405 5403 5401 5399 5397 5395 5393 5391 5389
5449 5448 5448 5447 5446 5445 5444 5443 5442 5440 5439 5437 5436 5434 5432 5430 5428 5427 5425 5423 5421 5419 5417 5415 5413 5412 5410 5408 5406 5404 5403 5401 5399 5397 5395 5394 5392 5389 5387 5385 5383 5382 5380 5377
5439 5439 5438 5437 5436 5435 5433 5432 5431 5429 5428 5426 5424 5422 5420 5419 5417 5415 5413 5411 5409 5407 5405 5403 5402 5400 5398 5396 5395 5393 5391 5389 5388 5386 5384 5382 5380 5378 5376 5374 5372 5370 5368 5366
5430 5429 5428 5427 5426 5424 5423 5421 5420 5418 5416 5415 5413 5411 5409 5407 5405 5403 5402 5399 5397 5395 5394 5392 5390 5388 5387 5385 5384 5382 5380 5378 5376 5374 5373 5371 5369 5367 5365 5362 5360 5358 5356 5354
5421 5420 5419 5417 5416 5414 5413 5411 5409 5407 5405 5403 5401 5399 5397 5395 5393 5391 5389 5388 5386 5384 5382 5381 5379 5377 5376 5374 5373 5371 5369 5367 5365 5363 5361 5359 5357 5355 5353 5351 5349 5347 5345 5343
5412 5410 5409 5408 5406 5404 5402 5400 5398 5396 5393 5391 5389 5387 5385 5383 5382 5380 5378 5376 5374 5373 5371 5370 5368 5366 5365 5363 5361 5360 5358 5356 5354 5352 5350 5348 5346 5344 5342 5340 5338 5336 5334 5332
5402 5401 5399 5397 5395 5393 5391 5389 5387 5384 5382 5380 5377 5375 5373 5371 5369 5368 5366 5365 5363 5361 5360 5358 5357 5355 5354 5352 5350 5348 5346 5344 5342 5340 5338 5336 5335 5333 5331 5329 5328 5326 5325 5323
5393 5391 5389 5387 5384 5382 5380 5378 5375 5373 5370 5368 5366 5364 5361 5359 5358 5356 5354 5353 5351 5350 5349 5347 5346 5344 5342 5340 5339 5337 5335 5333 5331 5329 5328 5326 5325 5323 5322 5321 5319 5318 5317 5316
Wind_Speed
29 28 29 28 27 26 26 25 25 24 24 23 23 23 23 23 23 23 24 24 25 25 26 26 27 29 31 32 32 33 34 35 36 38 39 40 41 42 42 42 43 44 44 45
31 30 30 30 29 28 27 27 27 27 27 26 26 26 26 26 26 26 25 25 26 27 27 28 28 29 31 32 33 34 35 36 37 38 39 41 41 42 43 44 44 45 45 45
33 32 32 31 30 29 28 28 29 29 28 28 28 28 28 28 28 27 28 28 28 28 29 29 29 30 31 33 34 35 36 38 38 39 40 40 41 42 43 44 45 45 45 46
36 35 34 32 30 30 30 29 30 30 30 30 30 30 30 30 30 30 30 30 30 30 30 30 31 32 33 33 34 35 37 38 39 40 40 40 41 42 43 44 45 46 46 47
37 36 35 33 32 31 31 30 30 30 30 30 30 30 30 31 31 31 31 31 31 31 31 31 32 33 34 34 35 36 37 37 38 39 40 40 40 41 42 44 45 46 46 47
38 38 37 35 33 32 32 32 31 30 30 30 30 30 30 31 31 31 32 32 32 33 33 34 34 35 35 36 36 37 38 38 39 39 40 40 41 43 43 45 46 46 47 48
38 38 37 36 35 34 34 34 32 32 32 32 32 32 32 32 32 32 32 33 33 34 34 35 35 36 36 37 37 38 39 39 40 40 41 42 43 44 45 46 47 47 47 48
39 39 38 37 36 36 36 35 35 34 34 34 34 34 34 34 34 34 34 35 35 36 36 37 37 37 38 38 39 39 40 41 41 42 42 43 43 44 45 46 47 47 47 48
39 38 38 38 38 38 38 38 37 36 36 36 36 36 36 36 36 36 37 37 37 38 39 39 39 39 39 40 40 41 42 42 43 43 43 44 44 45 45 46 47 47 47 48
39 38 37 37 38 38 39 39 39 38 38 37 38 37 38 38 38 38 38 39 39 39 40 40 41 41 41 42 42 42 43 43 44 44 45 45 45 45 46 46 47 48 48 49
39 38 38 38 38 38 38 39 39 39 39 39 40 40 40 40 40 40 41 41 41 41 41 41 42 42 42 43 43 43 43 43 44 44 45 45 45 45 45 46 47 48 48 49
39 38 39 39 39 39 39 39 39 40 40 40 41 41 41 42 42 42 43 42 42 43 43 42 42 42 43 43 43 43 43 44 44 44 44 44 45 45 45 46 47 47 47 47
40 40 41 40 40 39 39 39 39 40 40 40 41 42 43 43 43 43 43 43 43 43 43 42 42 42 42 43 43 43 43 44 44 44 43 43 43 43 43 44 44 45 45 45
40 41 41 40 40 40 39 39 39 40 40 41 41 42 42 43 43 43 43 43 43 43 43 42 42 42 43 43 43 43 42 42 43 43 42 42 42 42 42 42 43 43 43 44
39 40 40 40 40 39 39 40 40 40 40 41 41 42 42 42 42 42 42 42 43 43 43 43 42 42 42 42 42 41 41 41 41 41 41 41 42 42 42 42 42 42 43 43
38 38 39 39 39 39 40 40 40 40 40 41 41 41 41 41 41 41 42 42 42 42 42 42 42 42 42 41 41 41 41 41 41 41 41 42 42 42 42 42 42 42 42 42
35 36 36 37 37 38 39 39 39 39 40 40 40 40 40 41 41 41 41 41 41 41 41 41 41 41 40 40 40 40 40 41 41 41 41 41 42 42 41 41 41 40 40 40
33 34 34 35 35 36 36 36 37 37 38 38 39 39 39 39 40 40 39 39 39 39 39 39 39 39 39 39 39 39 39 40 40 40 40 40 40 40 40 40 39 39 39 39
31 32 33 34 34 34 35 35 36 37 37 38 38 38 38 39 39 38 38 38 38 38 38 38 38 38 38 38 38 38 39 39 39 39 39 38 38 38 39 39 38 39 39 39
31 32 32 33 33 34 34 35 36 36 37 37 37 37 37 37 37 37 37 38 38 38 38 37 37 37 37 37 37 37 37 37 37 37 37 36 36 36 37 37 37 37 37 38
30 31 31 32 32 33 34 34 34 35 35 35 36 37 37 37 37 37 37 37 37 37 36 36 36 35 35 35 35 35 35 35 35 35 35 35 35 35 35 35 36 36 36 37
28 29 30 30 31 31 32 33 33 34 34 35 36 36 36 36 36 36 36 36 35 35 35 34 34 34 34 34 34 33 33 33 33 33 34 34 34 34 34 35 35 36 36 36
27 28 28 29 30 30 31 32 33 33 34 34 35 36 36 35 35 35 34 34 34 34 34 33 33 33 33 33 32 32 32 33 33 33 33 34 34 34 34 35 35 35 35 34
27 28 28 29 30 31 32 32 33 33 34 35 35 36 36 35 35 35 34 33 33 33 32 33 33 33 32 32 32 32 33 33 33 33 33 34 34 34 34 34 34 33 33 32
28 29 30 31 32 32 33 33 34 34 35 35 35 36 36 36 35 35 34 34 34 33 33 32 32 32 32 32 32 33 33 33 33 33 34 34 33 33 32 32 31 30 29 28
29 30 31 32 32 33 33 33 33 34 34 35 35 36 35 35 35 34 34 34 33 33 32 31 31 31 31 32 33 33 33 33 33 33 32 31 30 30 30 29 27 26 25 25
30 31 32 32 32 33 33 33 33 33 33 33 33 34 34 33 32 32 31 31 31 31 31 31 31 31 32 32 32 31 31 30 30 29 28 27 27 26 24 23 22 22 22 21
Wind_Direction
283 283 282 281 281 279 279 280 282 283 284 286 287 286 285 284 283 281 279 278 277 275 274 274 274 272 271 270 269 268 267 266 265 265 265 266 266 266 266 267 268 268 269 270
280 280 279 277 277 277 277 278 279 279 281 283 282 283 283 283 282 281 280 279 279 278 276 275 275 274 273 271 271 270 269 269 268 267 267 268 268 268 268 269 269 269 271 272
278 278 277 276 277 276 277 278 278 278 279 281 279 279 280 281 281 282 281 280 281 281 279 278 277 275 274 274 273 271 270 270 270 270 270 269 269 269 269 270 271 271 272 273
278 277 276 278 276 276 276 277 278 278 277 278 278 279 280 280 280 281 281 282 282 282 282 281 280 278 276 276 275 273 272 272 273 273 272 271 271 271 271 271 271 272 273 274
275 276 276 275 276 276 275 276 276 277 278 278 277 277 278 279 280 282 282 283 283 283 283 282 281 280 278 277 276 275 274 274 274 274 273 272 272 272 272 272 272 273 273 274
272 273 274 274 274 274 273 273 274 276 276 277 278 277 278 278 280 281 282 282 283 283 283 283 282 280 278 277 276 276 275 275 275 274 274 273 273 273 273 273 273 273 274 274
271 272 272 273 274 273 273 273 273 274 274 275 276 278 278 279 280 281 282 282 282 282 282 282 281 281 280 277 276 276 275 275 275 275 275 274 274 274 275 275 275 275 275 275
269 270 271 271 271 271 272 272 273 273 274 275 275 276 277 277 278 279 280 280 281 281 281 281 281 281 280 279 278 277 276 276 276 277 277 276 276 276 276 276 276 277 277 277
268 269 270 270 271 271 271 271 272 273 273 274 275 276 276 276 277 278 279 279 280 280 281 281 282 281 280 279 279 278 277 277 277 276 276 276 276 276 276 277 278 278 278 278
266 266 267 267 269 270 271 271 272 272 273 273 274 275 275 276 277 278 279 279 280 281 281 281 281 281 281 280 280 279 278 278 278 277 277 277 277 277 278 278 278 278 279 279
265 265 266 266 267 268 268 269 271 273 273 274 274 275 276 277 278 279 280 281 281 282 282 282 282 281 281 280 279 279 278 278 278 278 278 278 278 278 278 278 278 279 280 280
264 264 265 266 267 268 268 269 271 272 273 275 276 276 277 279 280 280 281 282 282 283 283 283 282 282 281 281 280 280 279 279 279 280 279 279 278 277 277 277 278 279 280 280
263 263 264 265 267 268 270 271 272 274 275 277 278 278 279 279 281 282 282 282 283 284 284 283 282 282 281 281 281 280 280 280 280 281 280 279 278 277 277 278 278 279 280 280
263 263 264 265 267 268 270 272 274 276 277 278 279 280 280 281 282 283 283 283 284 284 283 283 282 282 282 282 282 281 280 280 280 280 280 279 280 279 278 278 279 280 281 281
264 265 266 267 267 269 271 272 274 276 278 279 280 280 281 282 283 283 283 283 283 283 283 282 282 282 282 282 281 280 280 280 281 281 281 280 280 280 280 280 281 281 282 282
264 265 266 268 269 270 272 274 276 278 279 280 280 281 282 283 283 283 283 283 283 282 282 281 281 281 280 280 280 280 280 281 281 281 280 281 280 280 280 281 282 283 283 282
265 266 268 269 271 273 274 276 277 278 279 280 281 281 282 282 283 283 283 282 282 282 282 282 281 280 280 280 280 280 280 280 280 280 281 281 281 280 280 281 282 283 283 283
266 267 269 271 273 274 276 277 278 279 280 281 282 282 282 282 283 283 283 282 283 282 282 282 281 280 280 280 280 280 281 281 281 282 282 282 281 281 281 281 281 281 282 283
267 269 271 274 275 277 278 279 280 281 282 282 283 284 283 283 283 283 282 282 282 282 281 282 282 282 281 281 281 281 281 282 282 282 283 283 283 282 281 281 281 282 282 283
268 271 273 275 276 278 280 281 282 282 283 283 283 284 283 283 282 283 283 282 282 282 281 281 282 282 282 282 282 282 282 282 282 283 283 283 283 283 282 281 281 283 283 284
271 273 275 276 277 278 280 281 282 282 282 283 283 284 284 284 284 284 284 284 283 283 283 282 282 282 282 282 282 282 282 282 282 283 283 283 284 284 283 283 283 283 284 284
274 276 276 277 278 279 280 281 282 282 282 283 284 284 284 284 284 284 284 284 283 283 283 282 282 282 282 282 282 282 282 283 283 283 283 283 283 283 283 284 285 285 285 286
277 277 277 279 280 281 282 283 284 284 284 284 284 284 284 284 284 284 283 283 283 283 283 283 283 283 283 282 281 281 282 283 283 283 283 283 283 283 284 285 286 286 286 286
279 280 280 281 283 284 285 285 286 286 285 284 284 284 285 285 284 284 283 283 283 283 283 283 283 283 282 282 281 281 281 282 283 283 284 284 285 285 286 286 286 286 285 285
281 282 283 284 285 286 287 287 287 286 285 285 285 286 286 285 284 284 283 283 282 282 282 283 282 282 282 282 282 282 283 283 284 284 285 286 286 286 286 286 286 286 284 283
284 285 285 286 286 287 288 288 287 287 286 286 286 286 286 286 285 284 283 282 282 281 281 282 282 282 283 284 284 284 284 284 285 285 286 285 285 286 287 286 285 284 284 283
286 287 288 289 289 289 290 290 289 289 288 288 288 287 286 285 285 284 284 283 282 281 281 282 282 284 285 286 286 286 285 285 285 284 284 284 285 285 286 285 285 285 285 285